Blue Ridge Observed Data For Previous 48 Hours

Caption
Day and Hour Reservoir Elevation (behind dam)* Tailwater Elevation (below dam)* Average Hourly Discharge*
5/23/2017 2 AM EDT 1,685.18 1,540.63 120
5/23/2017 3 AM EDT 1,685.17 1,540.63 120
5/23/2017 4 AM EDT 1,685.18 1,540.63 120
5/23/2017 5 AM EDT 1,685.20 1,540.64 120
5/23/2017 6 AM EDT 1,685.24 1,540.64 120
5/23/2017 7 AM EDT 1,685.24 1,540.64 120
5/23/2017 8 AM EDT 1,685.25 1,540.64 120
5/23/2017 9 AM EDT 1,685.28 1,540.64 120
5/23/2017 10 AM EDT 1,685.29 1,540.64 120
5/23/2017 11 AM EDT 1,685.27 1,540.64 120
5/23/2017 12 PM EDT 1,685.33 1,540.65 120
5/23/2017 1 PM EDT 1,685.35 1,540.65 120
5/23/2017 2 PM EDT 1,685.37 1,540.64 120
5/23/2017 3 PM EDT 1,685.32 1,540.65 120
5/23/2017 4 PM EDT 1,685.34 1,540.64 120
5/23/2017 5 PM EDT 1,685.37 1,540.64 120
5/23/2017 6 PM EDT 1,685.38 1,540.64 120
5/23/2017 7 PM EDT 1,685.43 1,540.64 120
5/23/2017 8 PM EDT 1,685.44 1,540.63 120
5/23/2017 9 PM EDT 1,685.45 1,540.63 120
5/23/2017 10 PM EDT 1,685.48 1,540.65 120
5/23/2017 11 PM EDT 1,685.52 1,540.65 120
5/24/2017 12 AM EDT 1,685.56 1,540.65 120
5/24/2017 1 AM EDT 1,685.64 1,540.64 120
5/24/2017 2 AM EDT 1,685.65 1,540.64 120
5/24/2017 3 AM EDT 1,685.67 1,540.63 120
5/24/2017 4 AM EDT 1,685.63 1,540.63 120
5/24/2017 5 AM EDT 1,685.66 1,540.63 120
5/24/2017 6 AM EDT 1,685.66 1,540.63 120
5/24/2017 7 AM EDT 1,685.69 1,540.63 120
5/24/2017 8 AM EDT 1,685.71 1,540.63 120
5/24/2017 9 AM EDT 1,685.73 1,540.63 120
5/24/2017 10 AM EDT 1,685.74 1,540.63 120
5/24/2017 11 AM EDT 1,685.78 1,540.64 120
5/24/2017 12 PM EDT 1,685.86 1,540.68 120
5/24/2017 1 PM EDT 1,685.86 1,540.68 120
5/24/2017 2 PM EDT 1,685.92 1,540.68 120
5/24/2017 3 PM EDT 1,685.89 1,540.66 120
5/24/2017 4 PM EDT 1,685.90 1,540.65 120
5/24/2017 5 PM EDT 1,685.93 1,540.65 120
5/24/2017 6 PM EDT 1,685.93 1,540.65 120
5/24/2017 7 PM EDT 1,685.97 1,540.64 120
5/24/2017 8 PM EDT 1,686.00 1,540.64 120
5/24/2017 9 PM EDT 1,686.05 1,540.64 120
5/24/2017 10 PM EDT 1,686.07 1,540.64 120
5/24/2017 11 PM EDT 1,686.07 1,540.64 120
5/25/2017 12 AM EDT 1,686.11 1,540.64 120
5/25/2017 1 AM EDT 1,686.12 1,540.64 120
5/25/2017 2 AM EDT 1,686.14 1,540.64 120
5/25/2017 3 AM EDT 1,686.16 1,540.64 120
5/25/2017 4 AM EDT 1,686.15 1,540.64 120
5/25/2017 5 AM EDT 1,686.17 1,540.64 120
5/25/2017 6 AM EDT 1,686.22 1,540.65 120
5/25/2017 7 AM EDT 1,686.24 1,540.65 120
5/25/2017 8 AM EDT 1,686.23 1,540.65 120
5/25/2017 9 AM EDT 1,686.25 1,540.65 120
5/25/2017 10 AM EDT 1,686.28 1,540.65 120
5/25/2017 11 AM EDT 1,686.26 1,540.65 120
5/25/2017 12 PM EDT 1,686.26 1,540.65 120
5/25/2017 1 PM EDT 1,686.26 1,540.65 120
5/25/2017 2 PM EDT 1,686.28 1,540.64 120
5/25/2017 3 PM EDT 1,686.27 1,540.64 120
5/25/2017 4 PM EDT 1,686.28 1,540.64 120
5/25/2017 5 PM EDT 1,686.31 1,540.64 120
5/25/2017 6 PM EDT 1,686.32 1,540.64 120
5/25/2017 7 PM EDT 1,686.33 1,540.64 120

Elevations are in feet above sea level. Discharges are in cubic feet per second and are reported at the end of the hour.